sat.trackr.live / text

‹ back to catalog

STARLINK-11441 [DTC]

NORAD 62413 · 2024-249E

PAYLOAD ACTIVE UNKNOWN

§ Identity

Operator
Country
US
Launch date
2024-12-23
Launch site
AFETR
Launch vehicle
Mass (kg)
RCS (m²)

Purposes: comms

External: N2YO · Heavens-Above · Gunter

§ Orbital elements

Epoch: 2026-05-25T04:18:04.184640Z

Period
91.67 min
Inclination
43.0008°
Eccentricity
0.0002319
Mean motion
15.70924093 rev/d
Perigee alt
354.7 km
Apogee alt
357.8 km
Semi-major
6,734.4 km
B*
1.8778e-3
RAAN
66.3147°
Arg perigee
244.1403°
Mean anomaly
115.9225°
Rev number
8,151

§ Raw data

STARLINK-11441 [DTC]1 62413U 24249E   26145.17921510  .00248734  00000+0  18778-2 0  99912 62413  43.0008  66.3147 0002319 244.1403 115.9225 15.70924093 81513

JSON: /api/v1/satellites/62413 · /tle

For live sub-satellite position, see the globe view (requires WebGL).

§ Visibility from observer

Set your observer location to see the next 7 days of passes ≥ 10°. The values pass through the URL so the page stays shareable.

No JS? Fill the form by hand. The geolocation button needs JavaScript.